Beckley, WV

12:26 AM EST on November 22, 2019 (GMT -0500)
Raleigh County Memorial

Weather History for KBKW - July, 2019

Change the Weather History Date:

Monday, July 15, 2019

  Actual Average Record
Temperature  
Mean Temperature 77 °F 71 °F  
Max Temperature 88 °F 80 °F 94 °F (1936)
Min Temperature 65 °F 62 °F 46 °F (1926)
Degree Days  
Heating Degree Days 0 0  
Month to date heating degree days 0 0  
Since 1 June heating degree days 33 39  
Since 1 July heating degree days 0 0  
Cooling Degree Days 12 6  
Month to date cooling degree days 155 90  
Year to date cooling degree days 381 242  
Since 1 June cooling degree days 261 201  
Growing Degree Days 26 (Base 50)    
Moisture  
Dew Point 64 °F    
Average Humidity 66    
Maximum Humidity 90    
Minimum Humidity 42    
Precipitation  
Precipitation 0.45 in 0.17 in 2.95 in (1994)
Month to date precipitation 2.44 2.36  
Year to date precipitation 25.33 23.52  
Sea Level Pressure  
Sea Level Pressure 30.15 in    
Wind  
Wind Speed 5 mph (SSW)    
Max Wind Speed 20 mph    
Max Gust Speed 27 mph    
Visibility 8 miles    
Events Rain , Thunderstorm    
T = Trace of Precipitation, MM = Missing Value Source: NWS Daily Summary

Daily Weather History Graph

Daily Weather History Graph

Search for Another Location

Airport or City:

Astronomy

Jul. 15, 2019 Rise Set
Actual Time 6:14 AM EDT 8:46 PM EDT
Civil Twilight 5:43 AM EDT 9:16 PM EDT
Nautical Twilight 5:06 AM EDT 9:54 PM EDT
Astronomical Twilight 4:24 AM EDT 10:36 PM EDT
Moon 8:02 PM EDT (7/15) 5:00 AM EDT (7/15)
Length of Visible Light 15h 32m
Length of Day
14h 31m
Waxing Gibbous, 98% of the Moon is Illuminated
Jul 15
Waxing Gibbous
Jul 16
Full
Jul 24
Last Quarter
Jul 31
New
Aug 7
First Quarter

Hourly Weather History & Observations

Time (EDT) Temp. Heat Index Dew Point Humidity Pressure Visibility Wind Dir Wind Speed Gust Speed Precip Events Conditions
12:51 AM 68.0 °F - 62.1 °F 81% 30.12 in 10.0 mi South 3.5 mph - N/A   Clear
1:51 AM 68.0 °F - 62.1 °F 81% 30.11 in 10.0 mi South 4.6 mph - N/A   Clear
2:51 AM 68.0 °F - 62.1 °F 81% 30.09 in 10.0 mi SSW 3.5 mph - N/A   Clear
3:51 AM 66.0 °F - 62.1 °F 87% 30.10 in 10.0 mi SW 3.5 mph - N/A   Clear
4:51 AM 66.0 °F - 62.1 °F 87% 30.10 in 10.0 mi SSW 3.5 mph - N/A   Clear
5:51 AM 66.9 °F - 63.0 °F 87% 30.12 in 10.0 mi South 5.8 mph - N/A   Mostly Cloudy
6:51 AM 69.1 °F - 64.9 °F 87% 30.13 in 10.0 mi South 4.6 mph - N/A   Overcast
7:32 AM 69.1 °F - 66.0 °F 90% 30.25 in 5.0 mi SSW 4.6 mph - N/A   Overcast
7:48 AM 69.8 °F - 66.2 °F 88% 30.25 in 2.0 mi South 4.6 mph - N/A   Overcast
7:51 AM 69.1 °F - 66.9 °F 93% 30.14 in 2.5 mi South 3.5 mph - N/A   Overcast
7:58 AM 69.1 °F - 66.9 °F 93% 30.25 in 4.0 mi SSW 4.6 mph - N/A   Overcast
8:29 AM 71.1 °F - 66.9 °F 87% 30.25 in 7.0 mi SSW 3.5 mph - N/A   Overcast
8:51 AM 72.0 °F - 68.0 °F 87% 30.14 in 9.0 mi South 4.6 mph - N/A   Overcast
9:13 AM 73.9 °F - 68.0 °F 82% 30.25 in 10.0 mi South 5.8 mph - N/A   Scattered Clouds
9:32 AM 75.0 °F - 68.0 °F 79% 30.25 in 10.0 mi SSW 3.5 mph - N/A   Mostly Cloudy
9:51 AM 73.9 °F - 66.9 °F 79% 30.14 in 10.0 mi NW 3.5 mph - N/A   Mostly Cloudy
10:01 AM 77.0 °F - 66.9 °F 71% 30.25 in 10.0 mi Calm Calm - N/A   Scattered Clouds
10:51 AM 79.0 °F - 64.9 °F 62% 30.14 in 10.0 mi Calm Calm - N/A   Partly Cloudy
11:51 AM 82.0 °F 83.8 °F 64.9 °F 56% 30.13 in 10.0 mi West 6.9 mph - N/A   Partly Cloudy
12:51 PM 82.0 °F 83.0 °F 62.1 °F 51% 30.13 in 10.0 mi Variable 3.5 mph - N/A   Partly Cloudy
1:51 PM 84.9 °F 85.0 °F 61.0 °F 44% 30.11 in 10.0 mi North - - N/A   Clear
2:51 PM 84.9 °F 85.0 °F 61.0 °F 44% 30.09 in 10.0 mi SSW 5.8 mph - N/A   Clear
3:51 PM 84.9 °F 84.8 °F 60.1 °F 43% 30.08 in 10.0 mi WNW 5.8 mph - N/A   Clear
4:51 PM 86.0 °F 86.1 °F 61.0 °F 43% 30.06 in 10.0 mi West 6.9 mph - N/A   Clear
5:51 PM 86.0 °F 86.3 °F 62.1 °F 44% 30.06 in 10.0 mi West 8.1 mph - N/A   Clear
7:51 PM 81.0 °F 82.5 °F 64.0 °F 56% 30.09 in 10.0 mi NW 6.9 mph - N/A   Clear
8:51 PM 79.0 °F - 64.9 °F 62% 30.09 in 10.0 mi NW 3.5 mph - N/A   Clear
9:08 PM 78.1 °F - 64.9 °F 64% 30.21 in 10.0 mi Calm Calm - N/A Thunderstorm Partly Cloudy
9:34 PM 70.0 °F - 63.0 °F 78% 30.23 in 2.5 mi West 19.6 mph 27.6 mph 0.00 in Rain , Thunderstorm Thunderstorms and Rain
9:42 PM 71.1 °F - 62.1 °F 73% 30.22 in 1.0 mi Variable 3.5 mph 24.2 mph 0.26 in Rain , Thunderstorm Heavy Thunderstorms and Rain
9:51 PM 68.0 °F - 64.0 °F 87% 30.13 in 1.8 mi SE 6.9 mph - 0.43 in Rain , Thunderstorm Thunderstorms and Rain
9:53 PM 68.0 °F - 64.0 °F 87% 30.22 in 3.0 mi ESE 6.9 mph - 0.01 in Rain , Thunderstorm Light Thunderstorms and Rain
10:00 PM 69.1 °F - 64.9 °F 87% 30.21 in 10.0 mi Calm Calm - 0.01 in Rain Light Rain
10:51 PM 69.1 °F - 66.0 °F 90% 30.11 in 10.0 mi SSE 6.9 mph - 0.02 in   Clear
11:51 PM 69.1 °F - 66.9 °F 93% 30.10 in 10.0 mi SSE 4.6 mph - N/A   Clear